Radiation Dose at Monitoring Post of Fukushima Daini Nuclear Power Station
Date,Time,MP-1(microSv/h),MP-2(microSv/h),MP-3(microSv/h),MP-4(microSv/h),MP-5(microSv/h),MP-6(microSv/h),MP-7(microSv/h),Wind Direction,Wind Velocity(m/s),Rain
2017/02/14,00:00,0.389,0.230,0.399,0.369,0.334,0.191,0.163,north-northwest,4.8,No
2017/02/14,00:10,0.389,0.229,0.398,0.369,0.335,0.191,0.163,north-northwest,4.4,No
2017/02/14,00:20,0.390,0.230,0.399,0.368,0.334,0.191,0.164,northwest,3.6,No
2017/02/14,00:30,0.390,0.230,0.399,0.368,0.333,0.191,0.162,northwest,2.7,No
2017/02/14,00:40,0.389,0.230,0.400,0.368,0.334,0.192,0.164,northwest,3.4,No
2017/02/14,00:50,0.389,0.230,0.400,0.369,0.335,0.191,0.164,north-northwest,3.9,No
2017/02/14,01:00,0.389,0.230,0.399,0.368,0.335,0.190,0.163,northwest,3.5,No
2017/02/14,01:10,0.390,0.229,0.398,0.367,0.335,0.192,0.163,north-northwest,2.8,No
2017/02/14,01:20,0.390,0.230,0.398,0.366,0.335,0.192,0.162,north-northwest,4.8,No
2017/02/14,01:30,0.389,0.230,0.398,0.368,0.334,0.192,0.163,north-northwest,2.9,No
2017/02/14,01:40,0.390,0.231,0.399,0.368,0.335,0.192,0.163,north-northwest,4.2,No
2017/02/14,01:50,0.390,0.231,0.399,0.369,0.336,0.192,0.164,north-northwest,4.1,No
2017/02/14,02:00,0.390,0.232,0.399,0.368,0.335,0.192,0.163,northwest,3.6,No
2017/02/14,02:10,0.391,0.229,0.399,0.368,0.334,0.191,0.163,north,2.9,No
2017/02/14,02:20,0.389,0.230,0.401,0.368,0.335,0.192,0.162,north-northwest,3.1,No
2017/02/14,02:30,0.390,0.231,0.399,0.370,0.335,0.192,0.163,north-northwest,3.7,No
2017/02/14,02:40,0.391,0.230,0.400,0.369,0.334,0.190,0.163,north-northwest,3.4,No
2017/02/14,02:50,0.390,0.230,0.401,0.367,0.334,0.192,0.164,north-northwest,3.2,No
2017/02/14,03:00,0.390,0.230,0.400,0.367,0.335,0.191,0.163,north-northwest,4.3,No
2017/02/14,03:10,0.389,0.230,0.399,0.367,0.334,0.192,0.163,north-northwest,4.2,No
2017/02/14,03:20,0.391,0.230,0.400,0.369,0.335,0.191,0.163,northwest,3.6,No
2017/02/14,03:30,0.388,0.230,0.400,0.368,0.335,0.192,0.163,northwest,3.6,No
2017/02/14,03:40,0.389,0.230,0.398,0.369,0.335,0.192,0.163,northwest,4.4,No
2017/02/14,03:50,0.390,0.229,0.399,0.368,0.333,0.192,0.163,northwest,4.5,No
2017/02/14,04:00,0.390,0.231,0.401,0.369,0.334,0.191,0.163,northwest,3.9,No
2017/02/14,04:10,0.389,0.230,0.400,0.369,0.335,0.191,0.163,north-northwest,3.9,No
2017/02/14,04:20,0.391,0.229,0.401,0.368,0.335,0.191,0.163,north-northwest,4.9,No
2017/02/14,04:30,0.389,0.230,0.400,0.367,0.334,0.192,0.164,northwest,5.1,No
2017/02/14,04:40,0.390,0.228,0.400,0.369,0.335,0.191,0.163,north-northwest,4.4,No
2017/02/14,04:50,0.391,0.231,0.400,0.369,0.335,0.192,0.162,north-northwest,4.6,No
2017/02/14,05:00,0.390,0.230,0.400,0.369,0.334,0.192,0.162,northwest,6.1,No
2017/02/14,05:10,0.390,0.231,0.399,0.368,0.335,0.191,0.163,northwest,4.8,No
2017/02/14,05:20,0.390,0.231,0.401,0.369,0.334,0.190,0.162,northwest,3.9,No
2017/02/14,05:30,0.389,0.230,0.399,0.368,0.335,0.191,0.162,northwest,3.3,No
2017/02/14,05:40,0.391,0.229,0.398,0.370,0.334,0.191,0.163,west-northwest,2.6,No
2017/02/14,05:50,0.390,0.230,0.398,0.368,0.335,0.192,0.163,north-northwest,2.1,No
2017/02/14,06:00,0.389,0.229,0.400,0.368,0.335,0.191,0.163,north-northwest,1.3,No
2017/02/14,06:10,0.388,0.230,0.400,0.367,0.334,0.191,0.163,north-northwest,1.9,No
2017/02/14,06:20,0.390,0.230,0.398,0.368,0.334,0.192,0.163,northwest,4.8,No
2017/02/14,06:30,0.390,0.230,0.400,0.366,0.334,0.192,0.163,northwest,5.6,No
2017/02/14,06:40,0.389,0.230,0.399,0.369,0.335,0.191,0.163,northwest,5.2,No
2017/02/14,06:50,0.389,0.229,0.402,0.369,0.334,0.191,0.164,northwest,3.9,No
2017/02/14,07:00,0.389,0.231,0.401,0.366,0.335,0.190,0.162,north-northwest,4.5,No
2017/02/14,07:10,0.389,0.229,0.399,0.369,0.336,0.192,0.162,north-northwest,3.9,No
2017/02/14,07:20,0.389,0.230,0.399,0.368,0.334,0.191,0.162,north-northwest,4.1,No
2017/02/14,07:30,0.391,0.228,0.399,0.368,0.333,0.191,0.163,northwest,3.4,No
2017/02/14,07:40,0.390,0.228,0.400,0.367,0.335,0.192,0.162,north-northwest,2.6,No
2017/02/14,07:50,0.388,0.230,0.399,0.368,0.335,0.191,0.162,northwest,2.2,No
2017/02/14,08:00,0.389,0.229,0.399,0.368,0.334,0.191,0.162,northwest,2.0,No
2017/02/14,08:10,0.389,0.230,0.398,0.369,0.335,0.190,0.162,north-northwest,1.8,No
2017/02/14,08:20,0.390,0.229,0.398,0.366,0.335,0.191,0.163,north-northwest,2.4,No
2017/02/14,08:30,0.388,0.229,0.399,0.368,0.336,0.192,0.163,north,2.5,No
2017/02/14,08:40,0.388,0.230,0.400,0.367,0.335,0.192,0.163,north,2.2,No
2017/02/14,08:50,0.389,0.229,0.398,0.367,0.334,0.190,0.164,north,2.0,No
2017/02/14,09:00,0.391,0.228,0.399,0.368,0.335,0.191,0.162,north-northwest,2.0,No
2017/02/14,09:10,0.389,0.229,0.398,0.369,0.335,0.191,0.162,north,3.1,No
2017/02/14,09:20,0.389,0.227,0.401,0.366,0.336,0.190,0.162,north-northwest,2.2,No
2017/02/14,09:30,0.388,0.229,0.399,0.366,0.334,0.191,0.162,north,3.9,No
2017/02/14,09:40,0.388,0.228,0.398,0.368,0.335,0.191,0.162,north-northeast,2.1,No
2017/02/14,09:50,0.387,0.229,0.400,0.367,0.333,0.192,0.161,northeast,1.8,No
2017/02/14,10:00,0.384,0.227,0.400,0.367,0.333,0.191,0.163,northeast,1.7,No
2017/02/14,10:10,0.387,0.229,0.398,0.367,0.337,0.192,0.162,northwest,3.1,No
2017/02/14,10:20,0.385,0.227,0.399,0.366,0.333,0.191,0.163,northwest,3.5,No
2017/02/14,10:30,0.387,0.228,0.399,0.367,0.332,0.191,0.163,west-northwest,3.6,No
2017/02/14,10:40,0.389,0.229,0.398,0.366,0.334,0.190,0.162,northwest,2.8,No
2017/02/14,10:50,0.387,0.230,0.397,0.369,0.332,0.192,0.163,northwest,2.8,No
2017/02/14,11:00,0.388,0.230,0.399,0.367,0.335,0.192,0.163,north-northwest,5.0,No
2017/02/14,11:10,0.386,0.230,0.395,0.367,0.334,0.191,0.164,north-northwest,5.0,No
2017/02/14,11:20,0.389,0.229,0.396,0.366,0.334,0.192,0.162,north,3.9,No
2017/02/14,11:30,0.388,0.230,0.397,0.367,0.334,0.191,0.163,west-northwest,3.9,No
2017/02/14,11:40,0.389,0.229,0.395,0.367,0.333,0.193,0.164,north-northeast,2.5,No
2017/02/14,11:50,0.388,0.229,0.397,0.367,0.335,0.191,0.163,east-northeast,3.6,No
2017/02/14,12:00,0.387,0.230,0.397,0.367,0.334,0.192,0.164,east-northeast,4.8,No
2017/02/14,12:10,0.389,0.229,0.398,0.368,0.335,0.192,0.164,east-northeast,2.2,No
2017/02/14,12:20,0.389,0.229,0.400,0.369,0.337,0.191,0.163,east-northeast,2.5,No
2017/02/14,12:30,0.389,0.231,0.395,0.369,0.336,0.191,0.164,northeast,1.6,No
2017/02/14,12:40,0.390,0.230,0.399,0.371,0.337,0.193,0.163,east,0.8,No
2017/02/14,12:50,0.390,0.231,0.398,0.368,0.334,0.192,0.164,east-southeast,0.6,No
2017/02/14,13:00,0.389,0.230,0.398,0.367,0.334,0.192,0.164,east-northeast,3.6,No
2017/02/14,13:10,0.390,0.231,0.400,0.371,0.337,0.192,0.164,east,2.2,No
2017/02/14,13:20,0.389,0.231,0.398,0.370,0.336,0.192,0.165,east,3.9,No
2017/02/14,13:30,0.388,0.231,0.398,0.368,0.333,0.192,0.164,east,1.3,No
2017/02/14,13:40,0.390,0.230,0.397,0.370,0.337,0.192,0.164,east,2.0,No
2017/02/14,13:50,0.391,0.231,0.397,0.368,0.335,0.192,0.164,east,1.6,No
2017/02/14,14:00,0.388,0.230,0.401,0.371,0.335,0.192,0.163,east,1.1,No
2017/02/14,14:10,0.390,0.230,0.398,0.370,0.336,0.192,0.163,east,0.9,No
2017/02/14,14:20,0.390,0.230,0.397,0.370,0.337,0.191,0.163,east-northeast,1.2,No
2017/02/14,14:30,0.391,0.230,0.401,0.368,0.337,0.191,0.164,east-southeast,1.2,No
2017/02/14,14:40,0.390,0.230,0.400,0.370,0.337,0.191,0.164,southeast,1.7,No
2017/02/14,14:50,0.390,0.231,0.398,0.369,0.336,0.191,0.164,east-southeast,1.7,No
2017/02/14,15:00,0.388,0.231,0.402,0.370,0.334,0.193,0.163,south-southwest,2.6,No
2017/02/14,15:10,0.391,0.231,0.397,0.369,0.336,0.191,0.164,northwest,4.2,No
2017/02/14,15:20,0.390,0.230,0.398,0.369,0.334,0.192,0.164,west-northwest,3.9,No
2017/02/14,15:30,0.391,0.229,0.400,0.369,0.334,0.192,0.162,west-northwest,4.2,No
2017/02/14,15:40,0.391,0.231,0.397,0.369,0.338,0.191,0.164,west-northwest,4.1,No
2017/02/14,15:50,0.389,0.232,0.398,0.368,0.334,0.192,0.163,west-northwest,3.9,No
2017/02/14,16:00,0.391,0.230,0.401,0.370,0.337,0.191,0.164,west-northwest,6.2,No
2017/02/14,16:10,0.393,0.231,0.398,0.368,0.339,0.193,0.164,west,4.4,No
2017/02/14,16:20,0.389,0.231,0.398,0.371,0.336,0.192,0.164,northwest,1.4,No
2017/02/14,16:30,0.391,0.230,0.400,0.370,0.336,0.193,0.163,north,1.4,No
2017/02/14,16:40,0.391,0.230,0.400,0.368,0.337,0.194,0.164,west-northwest,1.4,No
2017/02/14,16:50,0.391,0.231,0.399,0.369,0.335,0.192,0.164,west,3.6,No
2017/02/14,17:00,0.390,0.230,0.401,0.369,0.336,0.192,0.164,west,7.3,No
2017/02/14,17:10,0.389,0.230,0.401,0.369,0.336,0.192,0.164,west-northwest,6.9,No
2017/02/14,17:20,0.390,0.231,0.399,0.369,0.336,0.193,0.165,west,7.3,No
2017/02/14,17:30,0.393,0.230,0.401,0.371,0.335,0.192,0.164,west-northwest,7.1,No
2017/02/14,17:40,0.392,0.231,0.400,0.370,0.336,0.192,0.165,west-northwest,7.1,No
2017/02/14,17:50,0.390,0.231,0.400,0.370,0.337,0.193,0.165,northwest,6.8,No
2017/02/14,18:00,0.393,0.231,0.399,0.369,0.336,0.192,0.165,northwest,5.8,No
2017/02/14,18:10,0.391,0.231,0.399,0.369,0.334,0.192,0.164,west-northwest,5.3,No
2017/02/14,18:20,0.391,0.231,0.400,0.371,0.334,0.192,0.163,west-northwest,5.4,No
2017/02/14,18:30,0.392,0.230,0.400,0.370,0.336,0.192,0.163,west-northwest,5.3,No
2017/02/14,18:40,0.392,0.231,0.398,0.369,0.335,0.193,0.163,west-northwest,6.9,No
2017/02/14,18:50,0.392,0.231,0.399,0.371,0.336,0.193,0.163,west-northwest,6.8,No
2017/02/14,19:00,0.392,0.232,0.401,0.370,0.335,0.192,0.164,west-northwest,6.0,No
2017/02/14,19:10,0.391,0.232,0.402,0.368,0.337,0.193,0.165,northwest,6.7,No
2017/02/14,19:20,0.391,0.231,0.399,0.371,0.336,0.193,0.164,northwest,7.5,No
2017/02/14,19:30,0.392,0.231,0.399,0.371,0.337,0.193,0.164,northwest,4.9,No
2017/02/14,19:40,0.391,0.230,0.401,0.370,0.336,0.193,0.164,north-northwest,4.9,No
2017/02/14,19:50,0.391,0.231,0.400,0.370,0.335,0.193,0.163,north-northwest,5.7,No
2017/02/14,20:00,0.391,0.231,0.400,0.371,0.336,0.193,0.164,north-northwest,5.8,No
2017/02/14,20:10,0.393,0.230,0.400,0.371,0.335,0.192,0.164,northwest,5.1,No
2017/02/14,20:20,0.390,0.231,0.399,0.371,0.336,0.192,0.164,north-northwest,5.9,No
2017/02/14,20:30,0.393,0.230,0.402,0.369,0.335,0.193,0.163,north-northwest,5.4,No
2017/02/14,20:40,0.391,0.231,0.400,0.369,0.336,0.193,0.164,north-northwest,5.0,No
2017/02/14,20:50,0.391,0.231,0.400,0.370,0.336,0.192,0.164,north-northwest,3.2,No
2017/02/14,21:00,0.391,0.232,0.399,0.370,0.336,0.192,0.164,north-northwest,2.2,No
2017/02/14,21:10,0.391,0.231,0.400,0.369,0.335,0.192,0.163,north-northwest,2.3,No
2017/02/14,21:20,0.392,0.232,0.399,0.370,0.336,0.193,0.163,north-northwest,3.1,No
2017/02/14,21:30,0.390,0.229,0.400,0.370,0.335,0.193,0.164,northwest,4.0,No
2017/02/14,21:40,0.390,0.232,0.400,0.370,0.337,0.193,0.164,north-northwest,4.7,No
2017/02/14,21:50,0.393,0.231,0.402,0.370,0.336,0.192,0.164,north-northwest,4.2,No
2017/02/14,22:00,0.392,0.232,0.401,0.370,0.336,0.192,0.164,north-northwest,5.3,No
2017/02/14,22:10,0.392,0.230,0.401,0.371,0.335,0.192,0.165,north-northwest,5.6,No
2017/02/14,22:20,0.392,0.230,0.399,0.371,0.336,0.193,0.164,north-northwest,6.2,No
2017/02/14,22:30,0.391,0.232,0.401,0.370,0.336,0.192,0.164,north-northwest,6.1,No
2017/02/14,22:40,0.394,0.231,0.401,0.369,0.335,0.193,0.164,north-northwest,6.5,No
2017/02/14,22:50,0.390,0.231,0.400,0.369,0.335,0.193,0.164,north-northwest,6.0,No
2017/02/14,23:00,0.390,0.230,0.400,0.370,0.335,0.193,0.164,north-northwest,6.9,No
2017/02/14,23:10,0.390,0.230,0.400,0.370,0.336,0.192,0.163,north-northwest,6.3,No
2017/02/14,23:20,0.392,0.232,0.399,0.372,0.335,0.192,0.164,north-northwest,5.3,No
2017/02/14,23:30,0.391,0.230,0.400,0.369,0.337,0.193,0.164,north-northwest,5.0,No
2017/02/14,23:40,0.391,0.231,0.400,0.370,0.334,0.192,0.164,north-northwest,5.0,No
2017/02/14,23:50,0.392,0.231,0.400,0.369,0.333,0.193,0.164,north,4.8,No
